Bloomington, IL

4:53 PM CST on January 19, 2017 (GMT -0600)
Central Ill Regional

Weather History for KBMI - April, 2013

Change the Weather History Date:

Wednesday, April 10, 2013

  Actual Average Record
Temperature  
Mean Temperature 48 °F -  
Max Temperature 54 °F 0 °F 84 °F (2011)
Min Temperature 41 °F - 28 °F (1997)
Degree Days  
Heating Degree Days 17    
Moisture  
Dew Point 45 °F    
Average Humidity 96    
Maximum Humidity 100    
Minimum Humidity 83    
Precipitation  
Precipitation 1.31 in - - ()
Sea Level Pressure  
Sea Level Pressure 29.81 in    
Wind  
Wind Speed 15 mph (NE)    
Max Wind Speed 30 mph    
Max Gust Speed 37 mph    
Visibility 3 miles    
Events Fog , Rain , Thunderstorm    
Averages and records for this station are not official NWS values.
T = Trace of Precipitation, MM = Missing Value Source: NWS Daily Summary

Daily Weather History Graph

Daily Weather History Graph

Search for Another Location

Airport or City:

Trip Planner

Search our weather history database for the weather conditions in past years. The results will help you decide how hot, cold, wet, or windy it might be!

Date:

Astronomy

Apr. 10, 2013 Rise Set
Actual Time 6:24 AM CDT 7:29 PM CDT
Civil Twilight 5:56 AM CDT 7:57 PM CDT
Nautical Twilight 5:23 AM CDT 8:31 PM CDT
Astronomical Twilight 4:48 AM CDT 9:06 PM CDT
Moon 6:20 AM CDT (4/10) 8:05 PM CDT (4/10)
Length of Visible Light 14h 01m
Length of Day
13h 05m
New Moon, 0% of the Moon is Illuminated
Apr 10
New Moon
Apr 18
First Quarter
Apr 25
Full
May 2
Last Quarter
May 9
New

Hourly Weather History & Observations

Time (CDT) Temp. Windchill Dew Point Humidity Pressure Visibility Wind Dir Wind Speed Gust Speed Precip Events Conditions
12:56 AM 55.9 °F - 50.9 °F 83% 29.83 in 10.0 mi NE 9.2 mph - N/A   Mostly Cloudy
1:56 AM 52.9 °F - 47.8 °F 83% 29.83 in 9.0 mi NE 6.9 mph - N/A   Scattered Clouds
2:56 AM 50.9 °F - 46.9 °F 86% 29.82 in 8.0 mi NNE 9.2 mph - N/A   Mostly Cloudy
3:56 AM 50.9 °F - 46.9 °F 86% 29.80 in 8.0 mi ENE 8.1 mph - 0.00 in   Mostly Cloudy
4:56 AM 50.9 °F - 47.8 °F 89% 29.78 in 7.0 mi ENE 5.8 mph - N/A   Partly Cloudy
5:56 AM 50.9 °F - 48.9 °F 93% 29.76 in 6.0 mi NE 6.9 mph - N/A   Partly Cloudy
6:56 AM 50.0 °F - 47.8 °F 92% 29.81 in 2.5 mi North 23.0 mph 31.1 mph 0.01 in Rain Light Rain
7:18 AM 46.4 °F 39.5 °F 46.4 °F 100% 29.85 in 1.5 mi North 17.3 mph 25.3 mph 0.00 in Rain Light Rain
7:46 AM 44.6 °F 35.5 °F 44.6 °F 100% 29.88 in 1.2 mi North 25.3 mph 31.1 mph 0.00 in Rain Light Rain
7:56 AM 43.9 °F 36.5 °F 43.0 °F 97% 29.89 in 1.5 mi North 16.1 mph - 0.00 in Rain Light Rain
8:26 AM 42.8 °F 33.8 °F 42.8 °F 100% 29.88 in 4.0 mi NE 21.9 mph - 0.00 in   Overcast
8:44 AM 42.8 °F 34.0 °F 41.0 °F 93% 29.88 in 2.5 mi NE 20.7 mph - 0.00 in   Overcast
8:56 AM 41.9 °F 32.8 °F 41.0 °F 97% 29.88 in 2.5 mi NE 20.7 mph - 0.00 in   Overcast
9:32 AM 42.8 °F 36.2 °F 42.8 °F 100% 29.88 in 0.8 mi NE 12.7 mph - N/A   Overcast
9:36 AM 42.8 °F 34.8 °F 42.8 °F 100% 29.87 in 0.8 mi ENE 17.3 mph - N/A   Overcast
10:56 AM 43.9 °F 37.9 °F 43.9 °F 100% 29.90 in 0.8 mi ENE 11.5 mph - N/A   Overcast
11:12 AM 46.4 °F 40.7 °F 44.6 °F 93% 29.88 in 1.2 mi ENE 12.7 mph - N/A   Overcast
11:56 AM 48.9 °F - 45.9 °F 89% 29.87 in 4.0 mi NE 5.8 mph - N/A   Mostly Cloudy
12:30 PM 48.2 °F - 46.4 °F 93% 29.89 in 5.0 mi NW 3.5 mph - 0.00 in Rain , Thunderstorm Light Thunderstorms and Rain
12:56 PM 50.0 °F - 47.8 °F 92% 29.83 in 3.0 mi East 12.7 mph - 0.02 in Rain , Thunderstorm Light Thunderstorms and Rain
1:56 PM 54.0 °F - 50.9 °F 89% 29.85 in 3.0 mi NE 8.1 mph - 0.00 in   Mostly Cloudy
2:56 PM 52.9 °F - 52.0 °F 97% 29.88 in 3.0 mi NE 13.8 mph - 0.00 in Rain Light Rain
3:23 PM 50.0 °F - 48.2 °F 94% 29.87 in 3.0 mi North 17.3 mph - 0.01 in Rain , Thunderstorm Light Thunderstorms and Rain
3:56 PM 46.9 °F - 45.9 °F 96% 29.87 in 2.0 mi NNE 20.7 mph - 0.03 in Rain , Thunderstorm Light Thunderstorms and Rain
4:56 PM 45.9 °F 37.0 °F 45.0 °F 97% 29.80 in 1.5 mi ENE 26.5 mph - 0.02 in Rain Light Rain
5:56 PM 43.0 °F 34.0 °F 43.0 °F 100% 29.85 in 1.5 mi ENE 21.9 mph 26.5 mph 0.01 in Rain , Thunderstorm Thunderstorms and Rain
6:40 PM 42.8 °F 33.5 °F 42.8 °F 100% 29.77 in 2.5 mi ENE 23.0 mph 27.6 mph 0.02 in Thunderstorm Overcast
6:56 PM 43.0 °F 35.1 °F 41.9 °F 96% 29.80 in 2.5 mi ENE 17.3 mph - 0.02 in   Overcast
7:56 PM 43.0 °F 34.0 °F 43.0 °F 100% 29.76 in 2.5 mi East 21.9 mph - 0.07 in   Overcast
8:03 PM 42.8 °F 33.8 °F 42.8 °F 100% 29.73 in 5.0 mi ENE 21.9 mph - N/A   Overcast
8:56 PM 43.9 °F 35.4 °F 43.9 °F 100% 29.73 in 3.0 mi ENE 20.7 mph - N/A   Overcast
9:15 PM 44.6 °F 36.1 °F 44.6 °F 100% 29.72 in 1.0 mi ENE 21.9 mph - 0.14 in Rain , Thunderstorm Light Thunderstorms and Rain
9:23 PM 44.6 °F 35.5 °F 44.6 °F 100% 29.68 in 0.8 mi ENE 25.3 mph - 0.26 in Rain , Thunderstorm Light Thunderstorms and Rain
9:30 PM 44.6 °F 36.4 °F 44.6 °F 100% 29.69 in 1.2 mi ENE 20.7 mph - 0.27 in Rain , Thunderstorm Light Thunderstorms and Rain
9:37 PM 44.6 °F 37.4 °F 44.6 °F 100% 29.72 in 1.8 mi NE 16.1 mph - 0.30 in Rain , Thunderstorm Thunderstorms and Rain
9:43 PM 44.6 °F 34.7 °F 44.6 °F 100% 29.79 in 2.0 mi NW 29.9 mph 36.8 mph 0.31 in Rain , Thunderstorm Light Thunderstorms and Rain
9:56 PM 43.9 °F 34.1 °F 41.9 °F 93% 29.76 in 3.0 mi North 27.6 mph 36.8 mph 0.36 in Rain , Thunderstorm Light Thunderstorms and Rain
10:02 PM 44.6 °F 35.1 °F 42.8 °F 93% 29.80 in 1.8 mi NW 27.6 mph 36.8 mph 0.06 in Rain , Thunderstorm Heavy Thunderstorms and Rain
10:04 PM 44.6 °F 36.1 °F 42.8 °F 93% 29.78 in 1.5 mi NNW 21.9 mph 36.8 mph 0.09 in Rain , Thunderstorm Heavy Thunderstorms and Rain
10:10 PM 44.6 °F 36.6 °F 42.8 °F 93% 29.81 in 1.2 mi NW 19.6 mph - 0.13 in Rain , Thunderstorm Light Thunderstorms and Rain
10:24 PM 42.8 °F 35.1 °F 42.8 °F 100% 29.83 in 0.8 mi NNW 16.1 mph 24.2 mph 0.45 in Rain , Thunderstorm Heavy Thunderstorms and Rain
10:29 PM 42.8 °F 35.1 °F 42.8 °F 100% 29.83 in 0.5 mi NW 16.1 mph 24.2 mph 0.56 in Fog , Rain , Thunderstorm Heavy Thunderstorms and Rain
10:34 PM 42.8 °F 34.5 °F 42.8 °F 100% 29.82 in 0.8 mi North 18.4 mph - 0.59 in Rain , Thunderstorm Heavy Thunderstorms and Rain
10:37 PM 42.8 °F 34.5 °F 42.8 °F 100% 29.81 in 1.2 mi North 18.4 mph - 0.60 in Rain Heavy Rain
10:40 PM 42.8 °F 35.1 °F 42.8 °F 100% 29.80 in 1.8 mi NNE 16.1 mph - 0.61 in Rain Light Rain
10:47 PM 42.8 °F 34.3 °F 42.8 °F 100% 29.79 in 3.0 mi NE 19.6 mph - 0.64 in Rain Light Rain
10:56 PM 43.0 °F 34.2 °F 41.9 °F 96% 29.81 in 4.0 mi NE 20.7 mph - 0.65 in Rain Light Rain
11:00 PM 42.8 °F 34.5 °F 42.8 °F 100% 29.78 in 5.0 mi NE 18.4 mph - 0.00 in Rain Light Rain
11:39 PM 42.8 °F 34.8 °F 42.8 °F 100% 29.79 in 2.5 mi NE 17.3 mph - 0.06 in Rain Light Rain
11:43 PM 42.8 °F 35.1 °F 42.8 °F 100% 29.80 in 3.0 mi NE 16.1 mph - 0.07 in Rain Light Rain
11:56 PM 43.0 °F 35.1 °F 43.0 °F 100% 29.81 in 3.0 mi NE 17.3 mph - 0.12 in Rain Light Rain